Time,TemperatureF,DewpointF,PressureIn,WindDirection,WindDirectionDegrees,WindSpeedMPH,WindSpeedGustMPH,Humidity,HourlyPrecipIn,Conditions,Clouds,dailyrainin,SoftwareType,DateUTC
2013-04-26 00:01:00,27.0,20.0,30.36,NNW,335,5.0,14.0,74,0.00,,,0.00,,2013-04-26 07:01:00,
2013-04-26 00:11:00,27.0,20.0,30.36,NNW,335,5.0,14.0,74,0.00,,,0.00,,2013-04-26 07:11:00,
2013-04-26 00:21:00,27.0,20.0,30.36,NW,313,6.0,11.0,75,0.00,,,0.00,,2013-04-26 07:21:00,
2013-04-26 00:31:00,27.0,20.0,30.36,NNW,333,6.0,10.0,75,0.00,,,0.00,,2013-04-26 07:31:00,
2013-04-26 00:42:00,27.0,20.0,30.36,NNW,333,6.0,10.0,75,0.00,,,0.00,,2013-04-26 07:42:00,
2013-04-26 00:52:00,27.0,20.0,30.36,NNW,341,7.0,10.0,76,0.00,,,0.00,,2013-04-26 07:52:00,
2013-04-26 01:02:00,27.0,20.0,30.34,NNW,343,6.0,10.0,75,0.00,,,0.00,,2013-04-26 08:02:00,
2013-04-26 01:11:00,27.0,20.0,30.34,NNW,343,6.0,10.0,75,0.00,,,0.00,,2013-04-26 08:11:00,
2013-04-26 01:21:00,27.0,21.0,30.34,NNW,346,7.0,10.0,77,0.00,,,0.00,,2013-04-26 08:21:00,
2013-04-26 01:31:00,27.0,19.0,30.34,North,349,9.0,13.0,71,0.00,,,0.00,,2013-04-26 08:31:00,
2013-04-26 01:42:00,27.0,19.0,30.34,North,349,9.0,13.0,71,0.00,,,0.00,,2013-04-26 08:42:00,
2013-04-26 01:51:00,28.0,18.0,30.34,North,5,9.0,14.0,67,0.00,,,0.00,,2013-04-26 08:51:00,
2013-04-26 02:01:00,27.0,18.0,30.34,North,356,9.0,14.0,67,0.00,,,0.00,,2013-04-26 09:01:00,
2013-04-26 02:11:00,27.0,18.0,30.34,North,356,9.0,14.0,67,0.00,,,0.00,,2013-04-26 09:11:00,
2013-04-26 02:21:00,28.0,17.0,30.34,North,357,11.0,14.0,64,0.00,,,0.00,,2013-04-26 09:21:00,
2013-04-26 02:32:00,28.0,16.0,30.35,North,352,9.0,15.0,61,0.00,,,0.00,,2013-04-26 09:32:00,
2013-04-26 02:42:00,28.0,16.0,30.35,North,352,9.0,15.0,61,0.00,,,0.00,,2013-04-26 09:42:00,
2013-04-26 02:53:00,28.0,16.0,30.35,NNW,346,8.0,15.0,59,0.00,,,0.00,,2013-04-26 09:53:00,
2013-04-26 03:02:00,29.0,12.0,30.35,North,1,12.0,16.0,49,0.00,,,0.00,,2013-04-26 10:02:00,
2013-04-26 03:12:00,29.0,12.0,30.35,North,1,12.0,16.0,49,0.00,,,0.00,,2013-04-26 10:12:00,
2013-04-26 03:22:00,29.0,12.0,30.35,NNW,345,11.0,16.0,48,0.00,,,0.00,,2013-04-26 10:22:00,
2013-04-26 03:32:00,29.0,12.0,30.35,North,356,12.0,16.0,48,0.00,,,0.00,,2013-04-26 10:32:00,
2013-04-26 03:41:00,29.0,12.0,30.35,North,356,12.0,16.0,48,0.00,,,0.00,,2013-04-26 10:41:00,
2013-04-26 03:52:00,29.0,12.0,30.36,NNW,339,10.0,16.0,48,0.00,,,0.00,,2013-04-26 10:52:00,
2013-04-26 04:02:00,29.0,12.0,30.37,NNW,347,11.0,18.0,49,0.00,,,0.00,,2013-04-26 11:02:00,
2013-04-26 04:11:00,29.0,12.0,30.37,NNW,347,11.0,18.0,49,0.00,,,0.00,,2013-04-26 11:11:00,
2013-04-26 04:22:00,29.0,12.0,30.38,NNW,342,11.0,16.0,49,0.00,,,0.00,,2013-04-26 11:22:00,
2013-04-26 04:32:00,29.0,12.0,30.38,NNW,342,10.0,17.0,48,0.00,,,0.00,,2013-04-26 11:32:00,
2013-04-26 04:52:00,29.0,11.0,30.37,NNW,338,10.0,22.0,46,0.00,,,0.00,,2013-04-26 11:52:00,
2013-04-26 05:01:00,29.0,9.0,30.37,North,2,15.0,25.0,43,0.00,,,0.00,,2013-04-26 12:01:00,
2013-04-26 05:11:00,29.0,9.0,30.37,North,2,15.0,25.0,43,0.00,,,0.00,,2013-04-26 12:11:00,
2013-04-26 05:21:00,29.0,10.0,30.37,North,2,14.0,20.0,44,0.00,,,0.00,,2013-04-26 12:21:00,
2013-04-26 05:32:00,29.0,10.0,30.38,North,1,16.0,21.0,44,0.00,,,0.00,,2013-04-26 12:32:00,
2013-04-26 05:52:00,29.0,10.0,30.38,North,352,17.0,22.0,44,0.00,,,0.00,,2013-04-26 12:52:00,
2013-04-26 06:01:00,30.0,11.0,30.39,NNW,348,14.0,21.0,44,0.00,,,0.00,,2013-04-26 13:01:00,
2013-04-26 06:11:00,30.0,11.0,30.39,NNW,348,14.0,21.0,44,0.00,,,0.00,,2013-04-26 13:11:00,
2013-04-26 06:21:00,30.0,10.0,30.40,NNW,347,14.0,20.0,43,0.00,,,0.00,,2013-04-26 13:21:00,
2013-04-26 06:31:00,30.0,11.0,30.40,NNW,347,14.0,21.0,44,0.00,,,0.00,,2013-04-26 13:31:00,
2013-04-26 06:52:00,30.0,12.0,30.40,NNW,348,14.0,19.0,47,0.00,,,0.00,,2013-04-26 13:52:00,
2013-04-26 07:01:00,30.0,13.0,30.41,North,350,15.0,20.0,48,0.00,,,0.00,,2013-04-26 14:01:00,
2013-04-26 07:11:00,30.0,13.0,30.41,North,350,15.0,20.0,48,0.00,,,0.00,,2013-04-26 14:11:00,
2013-04-26 07:21:00,30.0,12.0,30.42,NNW,348,13.0,19.0,47,0.00,,,0.00,,2013-04-26 14:21:00,
2013-04-26 07:31:00,30.0,11.0,30.42,North,353,13.0,19.0,45,0.00,,,0.00,,2013-04-26 14:31:00,
2013-04-26 07:52:00,30.0,11.0,30.42,NNW,343,9.0,15.0,45,0.00,,,0.00,,2013-04-26 14:52:00,
2013-04-26 08:01:00,31.0,10.0,30.43,North,353,12.0,19.0,41,0.00,,,0.00,,2013-04-26 15:01:00,
2013-04-26 08:11:00,31.0,10.0,30.43,North,353,12.0,19.0,41,0.00,,,0.00,,2013-04-26 15:11:00,
2013-04-26 08:21:00,31.0,10.0,30.44,NNW,336,9.0,16.0,41,0.00,,,0.00,,2013-04-26 15:21:00,
2013-04-26 08:33:00,32.0,12.0,30.45,NNW,330,7.0,11.0,42,0.00,,,0.00,,2013-04-26 15:33:00,
2013-04-26 08:42:00,32.0,12.0,30.45,NNW,330,7.0,11.0,42,0.00,,,0.00,,2013-04-26 15:42:00,
2013-04-26 08:53:00,33.0,12.0,30.45,NNW,342,7.0,12.0,41,0.00,,,0.00,,2013-04-26 15:53:00,
2013-04-26 09:03:00,33.0,13.0,30.46,NNW,335,6.0,13.0,44,0.00,,,0.00,,2013-04-26 16:03:00,
2013-04-26 09:12:00,33.0,13.0,30.46,NNW,335,6.0,13.0,44,0.00,,,0.00,,2013-04-26 16:12:00,
2013-04-26 09:22:00,34.0,14.0,30.46,NW,320,4.0,12.0,44,0.00,,,0.00,,2013-04-26 16:22:00,
2013-04-26 09:32:00,34.0,14.0,30.47,NNW,332,7.0,11.0,43,0.00,,,0.00,,2013-04-26 16:32:00,
2013-04-26 09:42:00,34.0,14.0,30.47,NNW,332,7.0,11.0,43,0.00,,,0.00,,2013-04-26 16:42:00,
2013-04-26 09:52:00,35.0,16.0,30.48,NNW,328,6.0,11.0,45,0.00,,,0.00,,2013-04-26 16:52:00,
2013-04-26 10:02:00,34.0,16.0,30.48,NNW,329,5.0,13.0,47,0.00,,,0.00,,2013-04-26 17:02:00,
2013-04-26 10:11:00,34.0,16.0,30.48,NNW,329,5.0,13.0,47,0.00,,,0.00,,2013-04-26 17:11:00,
2013-04-26 10:21:00,35.0,15.0,30.48,NW,315,4.0,11.0,43,0.00,,,0.00,,2013-04-26 17:21:00,
2013-04-26 10:31:00,35.0,14.0,30.48,WNW,290,5.0,11.0,41,0.00,,,0.00,,2013-04-26 17:31:00,
2013-04-26 10:41:00,35.0,14.0,30.48,WNW,290,5.0,11.0,41,0.00,,,0.00,,2013-04-26 17:41:00,
2013-04-26 10:52:00,36.0,12.0,30.48,NW,305,6.0,15.0,36,0.00,,,0.00,,2013-04-26 17:52:00,
2013-04-26 11:02:00,36.0,13.0,30.48,West,269,6.0,12.0,38,0.00,,,0.00,,2013-04-26 18:02:00,
2013-04-26 11:11:00,37.0,14.0,30.50,WNW,297,6.0,11.0,39,0.00,,,0.00,,2013-04-26 18:11:00,
2013-04-26 11:22:00,37.0,14.0,30.50,WNW,297,6.0,11.0,39,0.00,,,0.00,,2013-04-26 18:22:00,
2013-04-26 11:33:00,37.0,14.0,30.50,NNW,337,4.0,11.0,39,0.00,,,0.00,,2013-04-26 18:33:00,
2013-04-26 11:41:00,37.0,14.0,30.50,NNW,337,4.0,11.0,39,0.00,,,0.00,,2013-04-26 18:41:00,
2013-04-26 11:52:00,36.0,12.0,30.50,NNW,331,3.0,11.0,37,0.00,,,0.00,,2013-04-26 18:52:00,
2013-04-26 12:01:00,36.0,15.0,30.49,NW,318,6.0,16.0,41,0.00,,,0.00,,2013-04-26 19:01:00,
2013-04-26 12:11:00,36.0,15.0,30.49,NW,318,6.0,16.0,41,0.00,,,0.00,,2013-04-26 19:11:00,
2013-04-26 12:22:00,37.0,15.0,30.49,WNW,296,3.0,12.0,40,0.00,,,0.00,,2013-04-26 19:22:00,
2013-04-26 12:31:00,37.0,15.0,30.50,NW,322,4.0,13.0,40,0.00,,,0.00,,2013-04-26 19:31:00,
2013-04-26 12:41:00,37.0,15.0,30.50,NW,322,4.0,13.0,40,0.00,,,0.00,,2013-04-26 19:41:00,
2013-04-26 12:52:00,36.0,12.0,30.49,West,268,6.0,12.0,37,0.00,,,0.00,,2013-04-26 19:52:00,
2013-04-26 13:01:00,39.0,14.0,30.50,WNW,290,8.0,14.0,36,0.00,,,0.00,,2013-04-26 20:01:00,
2013-04-26 13:11:00,38.0,13.0,30.50,West,271,6.0,12.0,35,0.00,,,0.00,,2013-04-26 20:11:00,
2013-04-26 13:21:00,38.0,13.0,30.50,West,271,6.0,12.0,35,0.00,,,0.00,,2013-04-26 20:21:00,
2013-04-26 13:32:00,40.0,16.0,30.50,WNW,298,6.0,17.0,37,0.00,,,0.00,,2013-04-26 20:32:00,
2013-04-26 13:41:00,40.0,16.0,30.50,WNW,298,6.0,17.0,37,0.00,,,0.00,,2013-04-26 20:41:00,
2013-04-26 13:52:00,38.0,13.0,30.50,NW,321,3.0,12.0,36,0.00,,,0.00,,2013-04-26 20:52:00,
2013-04-26 14:01:00,38.0,15.0,30.51,West,263,10.0,14.0,38,0.00,,,0.00,,2013-04-26 21:01:00,
2013-04-26 14:11:00,38.0,15.0,30.51,West,263,10.0,14.0,38,0.00,,,0.00,,2013-04-26 21:11:00,
2013-04-26 14:21:00,40.0,13.0,30.50,West,264,4.0,14.0,32,0.00,,,0.00,,2013-04-26 21:21:00,
2013-04-26 14:32:00,39.0,14.0,30.50,NNW,341,5.0,11.0,36,0.00,,,0.00,,2013-04-26 21:32:00,
2013-04-26 14:42:00,39.0,14.0,30.50,NNW,341,5.0,11.0,36,0.00,,,0.00,,2013-04-26 21:42:00,
2013-04-26 14:52:00,38.0,13.0,30.51,West,263,8.0,13.0,35,0.00,,,0.00,,2013-04-26 21:52:00,
2013-04-26 15:02:00,39.0,16.0,30.51,West,273,8.0,23.0,39,0.00,,,0.00,,2013-04-26 22:02:00,
2013-04-26 15:12:00,39.0,16.0,30.51,West,273,8.0,23.0,39,0.00,,,0.00,,2013-04-26 22:12:00,
2013-04-26 15:22:00,39.0,16.0,30.51,WNW,284,11.0,21.0,38,0.00,,,0.00,,2013-04-26 22:22:00,
2013-04-26 15:32:00,39.0,16.0,30.51,West,262,9.0,19.0,38,0.00,,,0.00,,2013-04-26 22:32:00,
2013-04-26 15:41:00,39.0,16.0,30.51,West,262,9.0,19.0,38,0.00,,,0.00,,2013-04-26 22:41:00,
2013-04-26 15:52:00,40.0,18.0,30.50,WNW,301,4.0,14.0,40,0.00,,,0.00,,2013-04-26 22:52:00,
2013-04-26 16:01:00,40.0,18.0,30.50,West,277,8.0,18.0,40,0.00,,,0.00,,2013-04-26 23:01:00,
2013-04-26 16:11:00,40.0,18.0,30.50,West,277,8.0,18.0,40,0.00,,,0.00,,2013-04-26 23:11:00,
2013-04-26 16:21:00,41.0,16.0,30.50,WNW,288,5.0,15.0,36,0.00,,,0.00,,2013-04-26 23:21:00,
2013-04-26 16:32:00,39.0,15.0,30.50,NNW,336,5.0,9.0,37,0.00,,,0.00,,2013-04-26 23:32:00,
2013-04-26 16:41:00,39.0,15.0,30.50,NNW,336,5.0,9.0,37,0.00,,,0.00,,2013-04-26 23:41:00,
2013-04-26 16:52:00,39.0,15.0,30.50,West,261,5.0,13.0,37,0.00,,,0.00,,2013-04-26 23:52:00,
2013-04-26 17:01:00,39.0,17.0,30.50,NW,316,4.0,8.0,41,0.00,,,0.00,,2013-04-27 00:01:00,
2013-04-26 17:11:00,39.0,17.0,30.50,NW,316,4.0,8.0,41,0.00,,,0.00,,2013-04-27 00:11:00,
2013-04-26 17:21:00,39.0,16.0,30.49,West,265,7.0,15.0,39,0.00,,,0.00,,2013-04-27 00:21:00,
2013-04-26 17:31:00,39.0,15.0,30.51,West,271,6.0,12.0,37,0.00,,,0.00,,2013-04-27 00:31:00,
2013-04-26 17:41:00,39.0,15.0,30.51,West,271,6.0,12.0,37,0.00,,,0.00,,2013-04-27 00:41:00,
2013-04-26 17:51:00,38.0,16.0,30.51,WNW,283,7.0,13.0,40,0.00,,,0.00,,2013-04-27 00:51:00,
2013-04-26 18:01:00,38.0,15.0,30.51,West,269,5.0,15.0,39,0.00,,,0.00,,2013-04-27 01:01:00,
2013-04-26 18:11:00,38.0,15.0,30.51,West,269,5.0,15.0,39,0.00,,,0.00,,2013-04-27 01:11:00,
2013-04-26 18:21:00,39.0,14.0,30.50,WNW,288,7.0,13.0,36,0.00,,,0.00,,2013-04-27 01:21:00,
2013-04-26 18:31:00,37.0,15.0,30.50,WNW,287,5.0,11.0,40,0.00,,,0.00,,2013-04-27 01:31:00,
2013-04-26 18:41:00,37.0,15.0,30.50,WNW,287,5.0,11.0,40,0.00,,,0.00,,2013-04-27 01:41:00,
2013-04-26 18:52:00,36.0,15.0,30.50,NW,305,4.0,10.0,42,0.00,,,0.00,,2013-04-27 01:52:00,
2013-04-26 19:01:00,37.0,16.0,30.50,NW,308,4.0,10.0,42,0.00,,,0.00,,2013-04-27 02:01:00,
2013-04-26 19:11:00,37.0,16.0,30.50,NW,308,4.0,10.0,42,0.00,,,0.00,,2013-04-27 02:11:00,
2013-04-26 19:21:00,36.0,16.0,30.51,WNW,292,4.0,11.0,43,0.00,,,0.00,,2013-04-27 02:21:00,
2013-04-26 19:31:00,36.0,15.0,30.53,West,272,4.0,16.0,42,0.00,,,0.00,,2013-04-27 02:31:00,
2013-04-26 19:42:00,36.0,15.0,30.53,West,272,4.0,16.0,42,0.00,,,0.00,,2013-04-27 02:42:00,
2013-04-26 19:52:00,35.0,14.0,30.52,NNW,329,5.0,14.0,42,0.00,,,0.00,,2013-04-27 02:52:00,
2013-04-26 20:01:00,35.0,15.0,30.53,NNW,329,4.0,7.0,44,0.00,,,0.00,,2013-04-27 03:01:00,
2013-04-26 20:11:00,35.0,15.0,30.53,NNW,329,4.0,7.0,44,0.00,,,0.00,,2013-04-27 03:11:00,
2013-04-26 20:21:00,35.0,15.0,30.53,NNW,338,8.0,12.0,44,0.00,,,0.00,,2013-04-27 03:21:00,
2013-04-26 20:32:00,34.0,13.0,30.53,NNW,342,8.0,13.0,42,0.00,,,0.00,,2013-04-27 03:32:00,
2013-04-26 20:42:00,34.0,13.0,30.53,NNW,342,8.0,13.0,42,0.00,,,0.00,,2013-04-27 03:42:00,
2013-04-26 20:53:00,34.0,13.0,30.54,NNW,339,9.0,13.0,42,0.00,,,0.00,,2013-04-27 03:53:00,
2013-04-26 21:02:00,34.0,12.0,30.54,NNW,343,13.0,18.0,40,0.00,,,0.00,,2013-04-27 04:02:00,
2013-04-26 21:12:00,34.0,12.0,30.54,NNW,343,13.0,18.0,40,0.00,,,0.00,,2013-04-27 04:12:00,
2013-04-26 21:22:00,35.0,12.0,30.55,NNW,343,12.0,20.0,38,0.00,,,0.00,,2013-04-27 04:22:00,
2013-04-26 21:32:00,35.0,13.0,30.55,North,3,14.0,20.0,39,0.00,,,0.00,,2013-04-27 04:32:00,
2013-04-26 21:42:00,35.0,13.0,30.55,North,3,14.0,20.0,39,0.00,,,0.00,,2013-04-27 04:42:00,
2013-04-26 21:52:00,35.0,13.0,30.54,NNW,348,13.0,21.0,39,0.00,,,0.00,,2013-04-27 04:52:00,
2013-04-26 22:02:00,35.0,11.0,30.55,NNW,348,12.0,18.0,37,0.00,,,0.00,,2013-04-27 05:02:00,
2013-04-26 22:11:00,35.0,11.0,30.55,NNW,348,12.0,18.0,37,0.00,,,0.00,,2013-04-27 05:11:00,
2013-04-26 22:22:00,35.0,13.0,30.55,NNW,347,13.0,18.0,39,0.00,,,0.00,,2013-04-27 05:22:00,
2013-04-26 22:31:00,34.0,12.0,30.54,North,353,14.0,20.0,39,0.00,,,0.00,,2013-04-27 05:31:00,
2013-04-26 22:42:00,34.0,12.0,30.54,North,353,14.0,20.0,39,0.00,,,0.00,,2013-04-27 05:42:00,
2013-04-26 22:52:00,34.0,11.0,30.54,NNW,346,13.0,19.0,37,0.00,,,0.00,,2013-04-27 05:52:00,
2013-04-26 23:01:00,34.0,11.0,30.54,North,351,13.0,19.0,37,0.00,,,0.00,,2013-04-27 06:01:00,
2013-04-26 23:11:00,34.0,11.0,30.54,North,351,13.0,19.0,37,0.00,,,0.00,,2013-04-27 06:11:00,
2013-04-26 23:22:00,34.0,9.0,30.53,NNW,347,13.0,20.0,35,0.00,,,0.00,,2013-04-27 06:22:00,
2013-04-26 23:32:00,34.0,9.0,30.53,North,351,13.0,19.0,35,0.00,,,0.00,,2013-04-27 06:32:00,
2013-04-26 23:41:00,34.0,9.0,30.53,North,351,13.0,19.0,35,0.00,,,0.00,,2013-04-27 06:41:00,
2013-04-26 23:52:00,34.0,7.0,30.54,NNW,346,14.0,19.0,32,0.00,,,0.00,,2013-04-27 06:52:00,